FW7730 Weather Reports


Display with metric or nautical units.
time (UTC)temp
F
wind
direction
speed
MPH
gust
MPH
rain 1hr
in
rain 24hr
in
rain mn
in
humidity
%
barometer
mb
20210917225540 68 122 1.0 6.0 0.00 0.00 0.00 42 1026.1
20210917225107 68 0 2.0 6.0 0.00 0.00 0.00 42 1026.2
20210917224559 68 0 2.0 7.0 0.00 0.00 0.00 42 1026.2
20210917224048 68 146 2.0 7.0 0.00 0.00 0.00 43 1026.4
20210917223548 68 245 1.0 6.0 0.00 0.00 0.00 43 1026.3
20210917223215 68 146 2.0 6.0 0.00 0.00 0.00 42 1026.3
20210917222548 68 173 3.0 6.0 0.00 0.00 0.00 42 1026.5
20210917222042 68 131 2.0 5.0 0.00 0.00 0.00 43 1026.6
20210917221559 68 193 3.0 7.0 0.00 0.00 0.00 44 1026.6
20210917221107 68 132 3.0 7.0 0.00 0.00 0.00 43 1026.6
20210917220549 68 198 1.0 9.0 0.00 0.00 0.00 44 1026.7
20210917220146 67 173 5.0 9.0 0.00 0.00 0.00 43 1026.7
20210917215607 67 199 2.0 7.0 0.00 0.00 0.00 44 1026.8
20210917215045 67 91 2.0 6.0 0.00 0.00 0.00 43 1026.8
20210917214738 68 186 3.0 6.0 0.00 0.00 0.00 44 1026.7
20210917214044 68 128 1.0 7.0 0.00 0.00 0.00 45 1026.8
20210917213547 67 101 3.0 8.0 0.00 0.00 0.00 45 1026.8
20210917213124 67 65 2.0 8.0 0.00 0.00 0.00 44 1026.8
20210917212606 67 122 3.0 8.0 0.00 0.00 0.00 45 1026.9
20210917212046 66 130 2.0 7.0 0.00 0.00 0.00 45 1027.0
20210917211613 66 79 2.0 6.0 0.00 0.00 0.00 46 1027.1
20210917211105 66 197 3.0 7.0 0.00 0.00 0.00 45 1027.1
20210917210542 66 165 3.0 8.0 0.00 0.00 0.00 45 1027.1
20210917210132 65 209 3.0 8.0 0.00 0.00 0.00 46 1027.1
20210917205541 65 99 4.0 8.0 0.00 0.00 0.00 45 1027.2
20210917205039 65 360 2.0 6.0 0.00 0.00 0.00 46 1027.2
20210917204623 64 123 1.0 7.0 0.00 0.00 0.00 45 1027.3
20210917204040 64 248 3.0 8.0 0.00 0.00 0.00 47 1027.4
20210917203546 64 49 2.0 8.0 0.00 0.00 0.00 47 1027.5
20210917203138 64 216 4.0 8.0 0.00 0.00 0.00 47 1027.7
20210917202540 65 92 2.0 8.0 0.00 0.00 0.00 45 1027.5
20210917202043 65 224 2.0 8.0 0.00 0.00 0.00 46 1027.7
20210917201643 64 180 4.0 8.0 0.00 0.00 0.00 46 1027.7
20210917201045 64 103 3.0 6.0 0.00 0.00 0.00 45 1027.8
20210917200541 64 260 1.0 9.0 0.00 0.00 0.00 46 1027.8
20210917200147 64 186 5.0 9.0 0.00 0.00 0.00 47 1027.9
20210917195541 63 181 3.0 9.0 0.00 0.00 0.00 48 1027.9
20210917195041 63 229 4.0 8.0 0.00 0.00 0.00 47 1028.0
20210917194634 63 69 2.0 8.0 0.00 0.00 0.00 47 1028.1
20210917194041 63 80 2.0 9.0 0.00 0.00 0.00 46 1028.3
20210917193540 62 50 3.0 9.0 0.00 0.00 0.00 47 1028.2
20210917193106 62 91 5.0 9.0 0.00 0.00 0.00 47 1028.3
20210917192545 63 165 3.0 8.0 0.00 0.00 0.00 47 1028.4
20210917192040 62 206 2.0 11.0 0.00 0.00 0.00 48 1028.5
20210917191626 63 223 4.0 11.0 0.00 0.00 0.00 48 1028.5
20210917191047 63 99 3.0 8.0 0.00 0.00 0.00 47 1028.5
20210917190542 62 111 3.0 8.0 0.00 0.00 0.00 49 1028.5
20210917190214 61 314 2.0 11.0 0.00 0.00 0.00 50 1028.7
20210917185541 61 213 4.0 11.0 0.00 0.00 0.00 50 1028.8
20210917185104 61 78 2.0 9.0 0.00 0.00 0.00 51 1028.9
20210917184600 60 187 3.0 9.0 0.00 0.00 0.00 50 1028.9
20210917184042 60 65 3.0 8.0 0.00 0.00 0.00 50 1028.8
20210917183604 59 306 4.0 9.0 0.00 0.00 0.00 50 1029.0
20210917183341 59 153 3.0 9.0 0.00 0.00 0.00 51 1029.0
20210917182540 60 140 2.0 7.0 0.00 0.00 0.00 51 1029.0
20210917182102 59 140 2.0 7.0 0.00 0.00 0.00 52 1029.1
20210917181633 59 186 3.0 8.0 0.00 0.00 0.00 50 1029.3
20210917181039 60 155 4.0 8.0 0.00 0.00 0.00 51 1029.4
20210917180600 59 181 3.0 8.0 0.00 0.00 0.00 52 1029.4
20210917180059 58 167 3.0 8.0 0.00 0.00 0.00 52 1029.5
20210917175542 58 139 2.0 8.0 0.00 0.00 0.00 53 1029.6
20210917175046 58 101 3.0 8.0 0.00 0.00 0.00 53 1029.5
20210917174556 58 80 3.0 8.0 0.00 0.00 0.00 54 1029.6
20210917174049 58 152 2.0 7.0 0.00 0.00 0.00 54 1029.6
20210917173540 57 148 2.0 6.0 0.00 0.00 0.00 55 1029.8
20210917173152 57 148 1.0 8.0 0.00 0.00 0.00 54 1029.9
20210917172543 58 184 4.0 8.0 0.00 0.00 0.00 54 1029.9
20210917172041 56 138 3.0 7.0 0.00 0.00 0.00 56 1029.9
20210917171623 56 190 3.0 8.0 0.00 0.00 0.00 55 1030.1
20210917171042 55 55 3.0 8.0 0.00 0.00 0.00 57 1030.0
20210917170543 55 86 3.0 7.0 0.00 0.00 0.00 57 1030.1
20210917170130 55 56 4.0 8.0 0.00 0.00 0.00 57 1030.1
20210917165542 54 123 4.0 8.0 0.00 0.00 0.00 58 1030.2
20210917165049 54 73 3.0 8.0 0.00 0.00 0.00 57 1030.3
20210917164750 53 82 3.0 6.0 0.00 0.00 0.00 59 1030.2
20210917164040 53 135 1.0 7.0 0.00 0.00 0.00 59 1030.2
20210917163544 53 77 2.0 7.0 0.00 0.00 0.00 60 1030.3
20210917163230 53 63 0.0 7.0 0.00 0.00 0.00 58 1030.3
20210917162544 52 95 2.0 7.0 0.00 0.00 0.00 61 1030.4
20210917162040 52 60 3.0 5.0 0.00 0.00 0.00 60 1030.5
20210917161608 52 0 2.0 6.0 0.00 0.00 0.00 60 1030.5
20210917161047 52 71 2.0 6.0 0.00 0.00 0.00 61 1030.5
20210917160544 52 97 0.0 8.0 0.00 0.00 0.00 61 1030.5
20210917160117 51 125 3.0 8.0 0.00 0.00 0.00 62 1030.6
20210917155541 51 81 3.0 6.0 0.00 0.00 0.00 62 1030.5
20210917155040 51 348 1.0 6.0 0.00 0.00 0.00 62 1030.6
20210917154707 51 88 2.0 7.0 0.00 0.00 0.00 63 1030.6
20210917154054 51 117 3.0 7.0 0.00 0.00 0.00 62 1030.5
20210917153539 51 86 3.0 7.0 0.00 0.00 0.00 63 1030.5
20210917153130 51 61 2.0 7.0 0.00 0.00 0.00 63 1030.5
20210917152540 50 82 3.0 6.0 0.00 0.00 0.00 64 1030.6
20210917152039 50 71 3.0 5.0 0.00 0.00 0.00 63 1030.6
20210917151621 51 42 3.0 6.0 0.00 0.00 0.00 63 1030.7
20210917151044 51 61 2.0 6.0 0.00 0.00 0.00 64 1030.7
20210917150542 50 88 3.0 7.0 0.00 0.00 0.00 64 1030.7
20210917150112 51 67 4.0 7.0 0.00 0.00 0.00 66 1030.6
20210917145544 50 87 3.0 7.0 0.00 0.00 0.00 65 1030.7
20210917145100 50 82 1.0 4.0 0.00 0.00 0.00 66 1030.7
20210917144627 50 108 2.0 4.0 0.00 0.00 0.00 66 1030.7
20210917144117 50 0 1.0 3.0 0.00 0.00 0.00 67 1030.7
20210917143539 50 0 1.0 4.0 0.00 0.00 0.00 67 1030.7
20210917143053 50 182 1.0 4.0 0.00 0.00 0.00 65 1030.7
20210917142542 50 182 0.0 5.0 0.00 0.00 0.00 67 1030.6
20210917142040 50 182 1.0 5.0 0.00 0.00 0.00 68 1030.6
20210917141609 49 197 1.0 5.0 0.00 0.00 0.00 68 1030.6
20210917141046 49 167 1.0 4.0 0.00 0.00 0.00 67 1030.6
20210917140556 49 161 1.0 4.0 0.00 0.00 0.00 66 1030.5
20210917140146 49 138 0.0 2.0 0.00 0.00 0.00 66 1030.6
20210917135552 49 119 0.0 2.0 0.00 0.00 0.00 67 1030.5
20210917135056 49 119 0.0 2.0 0.00 0.00 0.00 69 1030.6
20210917134623 49 0 0.0 2.0 0.00 0.00 0.00 69 1030.5
20210917134039 49 0 0.0 2.0 0.00 0.00 0.00 69 1030.5
20210917133613 49 0 0.0 2.0 0.00 0.00 0.00 68 1030.5
20210917133131 49 0 0.0 2.0 0.00 0.00 0.00 69 1030.5
20210917132539 48 0 0.0 2.0 0.00 0.00 0.00 70 1030.4
20210917132040 48 0 0.0 2.0 0.00 0.00 0.00 69 1030.4
20210917131603 48 0 0.0 2.0 0.00 0.00 0.00 69 1030.3
20210917131041 48 0 0.0 2.0 0.00 0.00 0.00 70 1030.3
20210917130545 48 5 1.0 2.0 0.00 0.00 0.00 69 1030.3
20210917130121 48 5 0.0 2.0 0.00 0.00 0.00 69 1030.1
20210917125542 48 5 0.0 2.0 0.00 0.00 0.00 71 1030.1
20210917125041 48 0 0.0 2.0 0.00 0.00 0.00 72 1030.1
20210917124620 47 5 0.0 2.0 0.00 0.00 0.00 71 1029.9
20210917124046 47 5 0.0 2.0 0.00 0.00 0.00 71 1030.0
20210917123546 47 5 0.0 1.0 0.00 0.00 0.00 72 1029.9
20210917123055 47 0 0.0 1.0 0.00 0.00 0.00 71 1029.9
20210917122551 47 0 0.0 2.0 0.00 0.00 0.00 72 1029.8
20210917122039 47 0 0.0 2.0 0.00 0.00 0.00 73 1029.8
20210917121634 46 5 1.0 2.0 0.00 0.00 0.00 72 1029.8
20210917121039 46 5 0.0 2.0 0.00 0.00 0.00 73 1029.7
20210917120550 46 0 0.0 2.0 0.00 0.00 0.00 74 1029.7
20210917120108 46 5 0.0 1.0 0.00 0.00 0.00 74 1029.6
20210917115557 46 0 0.0 1.0 0.00 0.00 0.00 73 1029.5
20210917115040 46 0 0.0 1.0 0.00 0.00 0.00 72 1029.4
20210917114634 46 0 0.0 2.0 0.00 0.00 0.00 72 1029.5
20210917114040 46 0 0.0 2.0 0.00 0.00 0.00 71 1029.3
20210917113550 47 5 0.0 1.0 0.00 0.00 0.00 71 1029.1
20210917113116 47 0 0.0 2.0 0.00 0.00 0.00 71 1029.2
20210917112542 47 0 0.0 2.0 0.00 0.00 0.00 70 1029.0
20210917112042 47 0 0.0 3.0 0.00 0.00 0.00 69 1029.0
20210917111608 47 5 1.0 3.0 0.00 0.00 0.00 69 1028.7
20210917111039 47 0 1.0 2.0 0.00 0.00 0.00 68 1028.8
20210917110548 48 5 1.0 3.0 0.00 0.00 0.00 68 1028.6
20210917110136 48 5 1.0 4.0 0.00 0.00 0.00 68 1028.5
20210917105541 48 5 1.0 4.0 0.00 0.00 0.00 67 1028.5
20210917105109 48 17 1.0 4.0 0.00 0.00 0.00 69 1028.3
20210917104740 48 0 2.0 4.0 0.00 0.00 0.00 68 1028.4
20210917104041 48 0 1.0 3.0 0.00 0.00 0.00 67 1028.3
20210917103542 49 63 1.0 2.0 0.00 0.00 0.00 67 1028.2
20210917103150 49 0 1.0 4.0 0.00 0.00 0.00 66 1028.2
20210917102541 50 5 1.0 7.0 0.00 0.00 0.00 65 1028.0
20210917102043 50 22 2.0 7.0 0.00 0.00 0.00 65 1027.8
20210917101625 51 16 1.0 6.0 0.00 0.00 0.00 64 1027.8
20210917101039 51 66 2.0 6.0 0.00 0.00 0.00 64 1027.6
20210917100550 51 40 2.0 6.0 0.00 0.00 0.00 63 1027.5
20210917100149 51 44 2.0 5.0 0.00 0.00 0.00 63 1027.4
20210917095539 52 42 2.0 7.0 0.00 0.00 0.00 63 1027.2
20210917095044 52 47 3.0 7.0 0.00 0.00 0.00 62 1027.2
20210917094616 53 73 3.0 7.0 0.00 0.00 0.00 65 1027.1
20210917094039 53 5 2.0 4.0 0.00 0.00 0.00 64 1026.9
20210917093546 53 84 2.0 5.0 0.00 0.00 0.00 64 1026.8
20210917093116 54 53 2.0 5.0 0.00 0.00 0.00 63 1026.7
20210917092548 55 0 1.0 4.0 0.00 0.00 0.00 63 1026.4
20210917092050 55 84 1.0 4.0 0.00 0.00 0.00 63 1026.4
20210917091603 55 74 2.0 4.0 0.00 0.00 0.00 63 1026.3
20210917091047 56 72 1.0 4.0 0.00 0.00 0.00 62 1026.1
20210917090542 56 0 1.0 3.0 0.00 0.00 0.00 61 1026.0
20210917090211 56 12 0.0 1.0 0.00 0.00 0.00 61 1025.9
20210917085543 56 0 0.0 1.0 0.00 0.00 0.00 61 1025.6
20210917085110 56 0 0.0 1.0 0.00 0.00 0.00 60 1025.5
20210917084611 57 0 0.0 2.0 0.00 0.00 0.00 60 1025.5
20210917084043 57 0 0.0 2.0 0.00 0.00 0.00 59 1025.3
20210917083548 58 12 0.0 2.0 0.00 0.00 0.00 58 1025.0
20210917083148 58 0 0.0 3.0 0.00 0.00 0.00 57 1025.1
20210917082546 58 12 0.0 7.0 0.00 0.00 0.00 57 1024.8
20210917082044 59 66 3.0 7.0 0.00 0.00 0.00 57 1024.7
20210917081659 59 70 2.0 8.0 0.00 0.00 0.00 56 1024.5
20210917081042 59 25 2.0 10.0 0.00 0.00 0.00 55 1024.4
20210917080545 60 0 3.0 16.0 0.00 0.00 0.00 55 1024.3
20210917080401 60 22 4.0 16.0 0.00 0.00 0.00 54 1024.1
20210917075545 60 5 5.0 13.0 0.00 0.00 0.00 53 1024.0
20210917075043 61 45 5.0 13.0 0.00 0.00 0.00 52 1024.1
20210917074621 61 44 6.0 13.0 0.00 0.00 0.00 51 1024.1
20210917074043 61 75 4.0 20.0 0.00 0.00 0.00 51 1024.0
20210917073543 61 44 5.0 20.0 0.00 0.00 0.00 51 1023.9
20210917073056 62 70 6.0 20.0 0.00 0.00 0.00 48 1023.9
20210917072543 62 61 9.0 20.0 0.00 0.00 0.00 48 1023.5
20210917072043 63 65 6.0 19.0 0.00 0.00 0.00 46 1023.2
20210917071612 63 48 11.0 18.0 0.00 0.00 0.00 46 1023.0
20210917071042 64 57 8.0 17.0 0.00 0.00 0.00 45 1022.8
20210917070546 64 59 9.0 19.0 0.00 0.00 0.00 43 1022.3
20210917070111 64 10 7.0 19.0 0.00 0.00 0.00 42 1022.2
20210917065543 64 46 4.0 16.0 0.00 0.00 0.00 40 1021.7
20210917065059 64 71 5.0 11.0 0.00 0.00 0.00 39 1021.3
20210917064629 64 355 3.0 8.0 0.00 0.00 0.00 38 1021.0
20210917064041 65 15 2.0 9.0 0.00 0.00 0.00 37 1020.8
20210917063551 65 321 3.0 9.0 0.00 0.00 0.00 37 1020.6
20210917063058 66 63 4.0 10.0 0.00 0.00 0.00 36 1020.4
20210917062542 67 32 4.0 14.0 0.00 0.00 0.00 35 1020.3
20210917062042 68 42 5.0 14.0 0.00 0.00 0.00 32 1020.3
20210917061640 68 57 5.0 15.0 0.00 0.00 0.00 29 1020.2
20210917061043 70 317 7.0 16.0 0.00 0.00 0.00 26 1020.0
20210917060556 73 101 7.0 16.0 0.00 0.00 0.00 17 1019.5
20210917060214 73 317 5.0 12.0 0.00 0.00 0.00 16 1018.7
20210917055612 74 306 5.0 12.0 0.00 0.00 0.00 16 1018.5
20210917055115 74 313 8.0 12.0 0.00 0.00 0.00 16 1018.3
20210917054610 74 287 6.0 10.0 0.00 0.00 0.00 16 1018.1
20210917054043 74 283 5.0 10.0 0.00 0.00 0.00 16 1018.0
20210917053544 74 292 5.0 10.0 0.00 0.00 0.00 16 1017.9
20210917053101 74 280 5.0 9.0 0.00 0.00 0.00 15 1017.8
20210917052544 74 306 3.0 10.0 0.00 0.00 0.00 15 1017.8
20210917052043 74 279 5.0 10.0 0.00 0.00 0.00 16 1017.7
20210917051619 74 285 4.0 9.0 0.00 0.00 0.00 16 1017.6
20210917051051 75 291 2.0 8.0 0.00 0.00 0.00 15 1017.5
20210917050553 75 290 4.0 8.0 0.00 0.00 0.00 16 1017.5
20210917050128 75 271 3.0 6.0 0.00 0.00 0.00 16 1017.4
20210917045543 76 284 3.0 6.0 0.00 0.00 0.00 15 1017.3
20210917045043 76 298 2.0 4.0 0.00 0.00 0.00 15 1017.1
20210917044607 76 294 2.0 4.0 0.00 0.00 0.00 15 1017.1
20210917044047 75 293 2.0 4.0 0.00 0.00 0.00 14 1017.0
20210917043542 74 267 1.0 7.0 0.00 0.00 0.00 16 1017.0
20210917043104 74 0 2.0 7.0 0.00 0.00 0.00 18 1016.9
20210917042542 73 53 2.0 4.0 0.00 0.00 0.00 18 1016.8
20210917042056 73 288 2.0 4.0 0.00 0.00 0.00 19 1017.0
20210917041725 74 0 1.0 4.0 0.00 0.00 0.00 19 1016.9
20210917041042 74 0 0.0 3.0 0.00 0.00 0.00 18 1016.7
20210917040546 73 329 1.0 5.0 0.00 0.00 0.00 19 1016.7
20210917040132 74 327 2.0 5.0 0.00 0.00 0.00 18 1016.6
20210917035540 74 61 2.0 4.0 0.00 0.00 0.00 18 1016.6
20210917035044 74 59 1.0 4.0 0.00 0.00 0.00 18 1016.6
20210917034626 74 275 1.0 2.0 0.00 0.00 0.00 18 1016.6
20210917034043 75 261 0.0 5.0 0.00 0.00 0.00 20 1016.4
20210917033558 76 261 1.0 5.0 0.00 0.00 0.00 16 1016.2
20210917033118 76 13 0.0 8.0 0.00 0.00 0.00 19 1016.2
20210917032543 77 277 2.0 8.0 0.00 0.00 0.00 16 1016.2
20210917032043 76 347 2.0 8.0 0.00 0.00 0.00 19 1016.1
20210917031711 77 238 2.0 8.0 0.00 0.00 0.00 18 1016.2
20210917031054 77 0 1.0 6.0 0.00 0.00 0.00 17 1016.0
20210917030544 75 0 1.0 6.0 0.00 0.00 0.00 17 1016.0
20210917030124 76 126 0.0 4.0 0.00 0.00 0.00 20 1016.0
20210917025543 76 285 1.0 4.0 0.00 0.00 0.00 19 1016.0
20210917025042 75 215 1.0 5.0 0.00 0.00 0.00 20 1015.9
20210917024714 76 27 1.0 5.0 0.00 0.00 0.00 20 1015.8
20210917024042 76 293 1.0 3.0 0.00 0.00 0.00 19 1015.8
20210917023541 76 296 1.0 3.0 0.00 0.00 0.00 18 1015.7
20210917023101 76 296 1.0 5.0 0.00 0.00 0.00 19 1015.6
20210917022557 77 296 1.0 5.0 0.00 0.00 0.00 20 1015.5
20210917022043 75 196 1.0 6.0 0.00 0.00 0.00 19 1015.3
20210917021712 75 342 3.0 6.0 0.00 0.00 0.00 19 1015.3
20210917021041 76 0 1.0 4.0 0.00 0.00 0.00 20 1015.2
20210917020547 76 290 1.0 3.0 0.00 0.00 0.00 19 1015.3
20210917020123 77 290 1.0 3.0 0.00 0.00 0.00 19 1015.1
20210917015543 79 290 2.0 3.0 0.00 0.00 0.00 18 1015.1
20210917015046 79 293 2.0 3.0 0.00 0.00 0.00 18 1015.0
20210917014556 79 263 0.0 4.0 0.00 0.00 0.00 17 1015.0
20210917014044 77 0 1.0 4.0 0.00 0.00 0.00 19 1014.9
20210917013550 77 206 1.0 3.0 0.00 0.00 0.00 19 1014.7
20210917013117 77 302 0.0 4.0 0.00 0.00 0.00 19 1014.6
20210917012541 77 302 1.0 4.0 0.00 0.00 0.00 19 1014.6
20210917012043 78 302 1.0 3.0 0.00 0.00 0.00 18 1014.5
20210917011651 79 308 1.0 3.0 0.00 0.00 0.00 18 1014.4
20210917011048 80 312 1.0 3.0 0.00 0.00 0.00 16 1014.3
20210917010603 81 273 1.0 3.0 0.00 0.00 0.00 17 1014.2
20210917010057 81 273 1.0 3.0 0.00 0.00 0.00 16 1014.3
20210917005543 82 0 0.0 3.0 0.00 0.00 0.00 15 1014.2
20210917005046 82 0 1.0 5.0 0.00 0.00 0.00 15 1014.3
20210917004642 82 270 2.0 10.0 0.00 0.00 0.00 16 1014.2
20210917004043 82 271 3.0 10.0 0.00 0.00 0.00 15 1014.2
20210917003558 81 171 4.0 10.0 0.00 0.00 0.00 16 1014.1
20210917003147 81 298 3.0 8.0 0.00 0.00 0.00 16 1014.2
20210917002558 81 292 2.0 6.0 0.00 0.00 0.00 18 1014.2
20210917002049 82 187 2.0 6.0 0.00 0.00 0.00 18 1014.0
20210917001713 82 184 2.0 5.0 0.00 0.00 0.00 17 1013.8
20210917001053 83 0 0.0 5.0 0.00 0.00 0.00 17 1013.7
20210917000542 84 38 2.0 8.0 0.00 0.00 0.00 18 1013.7
20210917000240 85 90 3.0 8.0 0.00 0.00 0.00 17 1013.5
20210916235540 86 90 3.0 8.0 0.00 0.00 0.00 16 1013.5
20210916235043 86 360 2.0 8.0 0.00 0.00 0.00 14 1013.6
20210916234654 87 284 3.0 8.0 0.00 0.00 0.00 14 1013.6
20210916234043 88 316 0.0 6.0 0.00 0.00 0.00 18 1013.5
20210916233558 89 319 1.0 9.0 0.00 0.00 0.00 17 1013.3
20210916233130 89 76 4.0 9.0 0.00 0.00 0.00 16 1013.2
20210916232543 89 94 1.0 4.0 0.00 0.00 0.00 15 1013.2
20210916232045 89 92 0.0 3.0 0.00 0.00 0.00 16 1013.3
20210916231603 88 109 1.0 2.0 0.00 0.00 0.00 16 1013.3
20210916231042 87 109 0.0 4.0 0.00 0.00 0.00 15 1013.3
20210916230542 86 222 1.0 4.0 0.00 0.00 0.00 17 1013.3
20210916230230 85 242 1.0 3.0 0.00 0.00 0.00 22 1013.3